Weather History for Springfield, MO

Change the Weather History Date:

Monday, March 18, 2013

  Actual Average Record
Temperature  
Mean Temperature 45 °F 47 °F  
Max Temperature 53 °F 58 °F 83 °F (1907)
Min Temperature 36 °F 36 °F 3 °F (1923)
Degree Days  
Heating Degree Days 20 18  
Month to date heating degree days 399 372  
Since 1 July heating degree days 3697 3965  
Cooling Degree Days 0 0  
Month to date cooling degree days 0 0  
Year to date cooling degree days 0 0  
Moisture  
Dew Point 35 °F    
Average Humidity 69    
Maximum Humidity 100    
Minimum Humidity 38    
Precipitation  
Precipitation 0.01 in 0.12 in 3.93 in (2008)
Month to date precipitation 3.14 2.00  
Year to date precipitation 8.48 6.99  
Snow  
Snow 0.00 in - - ()
Month to date snowfall T  
Since 1 July snowfall 7.0  
Snow Depth 0.00 in    
Sea Level Pressure  
Sea Level Pressure 29.86 in    
Wind  
Wind Speed 9 mph (WNW)    
Max Wind Speed 23 mph    
Max Gust Speed 29 mph    
Visibility 9 miles    
Events      
T = Trace of Precipitation, MM = Missing Value Source: NWS Daily Summary

Daily Weather History Graph

Daily Weather History Graph

Search for Another Location

Airport:

Trip Planner

Search our weather history database for the weather conditions in past years. The results will help you decide how hot, cold, wet, or windy it might be!

Date:

Astronomy

Mar. 18, 2013 Rise Set
Actual Time 7:19 AM CDT 7:23 PM CDT
Civil Twilight 6:53 AM CDT 7:49 PM CDT
Nautical Twilight 6:23 AM CDT 8:20 PM CDT
Astronomical Twilight 5:52 AM CDT 8:50 PM CDT
Moon 11:27 AM CDT (3/18) 1:16 AM CDT (3/18)
Length of Visible Light 12h 56m
Length of Day
12h 04m
Waxing Crescent, 41% of the Moon is Illuminated
Mar 18
Waxing Crescent
Mar 19
First Quarter
Mar 27
Full
Apr 2
Last Quarter
Apr 10
New

Hourly Weather History & Observations

Time (CDT) Temp. Windchill Dew Point Humidity Pressure Visibility Wind Dir Wind Speed Gust Speed Precip Events Conditions
12:52 AM 39.9 °F 33.4 °F 39.0 °F 97% 29.71 in 7.0 mi SSE 10.4 mph - N/A   Overcast
1:52 AM 39.9 °F 32.9 °F 39.0 °F 97% 29.69 in 5.0 mi South 11.5 mph - N/A   Overcast
2:52 AM 41.0 °F 36.4 °F 39.9 °F 96% 29.72 in 7.0 mi SW 6.9 mph - N/A   Overcast
3:52 AM 41.0 °F 35.8 °F 39.9 °F 96% 29.73 in 7.0 mi SW 8.1 mph - N/A   Overcast
4:52 AM 42.1 °F 37.7 °F 41.0 °F 96% 29.71 in 7.0 mi SW 6.9 mph - N/A   Overcast
5:52 AM 43.0 °F 37.2 °F 41.0 °F 93% 29.73 in 10.0 mi NW 10.4 mph - N/A   Overcast
6:52 AM 41.0 °F 35.8 °F 39.2 °F 93% 29.74 in 9.0 mi WNW 8.1 mph - N/A   Overcast
7:01 AM 41.0 °F 34.3 °F 39.0 °F 93% 29.75 in 9.0 mi West 11.5 mph - N/A   Overcast
7:52 AM 39.9 °F 33.9 °F 37.9 °F 93% 29.80 in 10.0 mi WNW 9.2 mph - N/A   Overcast
8:52 AM 39.0 °F 31.4 °F 37.0 °F 93% 29.85 in 10.0 mi WNW 12.7 mph 20.7 mph N/A   Overcast
9:52 AM 39.0 °F 31.0 °F 37.0 °F 93% 29.84 in 10.0 mi NW 13.8 mph 21.9 mph 0.01 in   Overcast
10:52 AM 39.0 °F 30.3 °F 36.0 °F 89% 29.88 in 10.0 mi NW 16.1 mph 26.5 mph N/A   Overcast
11:07 AM 39.9 °F 30.8 °F 37.0 °F 89% 29.86 in 10.0 mi NW 18.4 mph 24.2 mph N/A   Overcast
11:50 AM 39.2 °F 29.8 °F 37.4 °F 93% 29.88 in 10.0 mi NNW 18.4 mph - N/A   Overcast
11:52 AM 39.9 °F 31.4 °F 36.0 °F 86% 29.90 in 10.0 mi NNW 16.1 mph - N/A   Overcast
12:15 PM 39.9 °F 31.4 °F 37.0 °F 89% 29.90 in 9.0 mi NW 16.1 mph 21.9 mph N/A   Overcast
12:30 PM 39.9 °F 30.8 °F 36.0 °F 86% 29.90 in 10.0 mi NW 18.4 mph 24.2 mph N/A   Overcast
12:41 PM 39.9 °F 31.1 °F 36.0 °F 86% 29.90 in 10.0 mi NW 17.3 mph 23.0 mph N/A   Overcast
12:52 PM 39.9 °F 31.8 °F 36.0 °F 86% 29.92 in 10.0 mi NW 15.0 mph - N/A   Overcast
1:15 PM 43.0 °F 35.7 °F 37.0 °F 80% 29.91 in 10.0 mi NW 15.0 mph - N/A   Overcast
1:52 PM 46.0 °F 40.2 °F 37.0 °F 71% 29.92 in 10.0 mi NNW 12.7 mph - N/A   Mostly Cloudy
2:11 PM 46.0 °F 41.0 °F 37.0 °F 71% 29.90 in 10.0 mi NW 10.4 mph - N/A   Scattered Clouds
2:22 PM 46.9 °F - 37.0 °F 68% 29.90 in 10.0 mi NW 10.4 mph - N/A   Mostly Cloudy
2:32 PM 48.0 °F - 37.0 °F 66% 29.89 in 10.0 mi NW 15.0 mph 21.9 mph N/A   Scattered Clouds
2:52 PM 48.0 °F - 36.0 °F 63% 29.91 in 10.0 mi WNW 12.7 mph 20.7 mph N/A   Partly Cloudy
3:52 PM 51.1 °F - 35.1 °F 54% 29.90 in 10.0 mi NW 12.7 mph 21.9 mph N/A   Partly Cloudy
4:52 PM 52.0 °F - 30.9 °F 45% 29.91 in 10.0 mi WNW 12.7 mph 21.9 mph N/A   Partly Cloudy
5:52 PM 53.1 °F - 30.0 °F 41% 29.91 in 10.0 mi WNW 10.4 mph - N/A   Clear
6:52 PM 51.1 °F - 26.1 °F 38% 29.94 in 10.0 mi NW 11.5 mph - N/A   Clear
7:52 PM 48.0 °F - 24.1 °F 39% 29.96 in 10.0 mi WNW 3.5 mph - N/A   Clear
8:52 PM 41.0 °F - 27.0 °F 57% 29.99 in 10.0 mi Calm Calm - N/A   Clear
9:52 PM 39.9 °F 37.8 °F 27.0 °F 60% 30.02 in 10.0 mi West 3.5 mph - N/A   Clear
10:52 PM 39.0 °F 36.8 °F 27.0 °F 62% 30.05 in 10.0 mi NNW 3.5 mph - N/A   Clear